Regional Weather Roundup
Issued by NWS Sterling, VA

Home | Current Version | Previous Version | Graphics & Text | Print | Product List | Glossary On
Versions: 1 2 3 4 5 6 7 8 9 10 11 12 13 14 15 16 17 18 19 20 21 22 23 24 25 26 27 28 29 30 31 32 33 34 35 36 37 38 39 40 41 42 43 44 45 46 47 48 49 50
000
ASUS41 KLWX 271110
RWRLWX

REGIONAL WEATHER ROUNDUP
NATIONAL WEATHER SERVICE BALTIMORE MD/WASHINGTON DC
600 AM EST THU NOV 27 2014

Note: "FAIR" indicates few or no clouds below 12,000 feet
with no significant weather and/or obstructions to visibility.
 TC=TEMPERATURE CELSIUS

 * =Non NWS site. Station does not report precipitation (e.g. rain,
    snow, etc.), thunder, or fog.

DCZ001-MDZ009-015-VAZ040>042-051-053>054-271200-
WASHINGTON METRO

CITY           SKY/WX    TMP DP  RH WIND       PRES   REMARKS
WASHINGTON NAT CLOUDY    39  32  76 CALM      30.04R
DULLES         MOCLDY    32  32 100 CALM      30.02S
ANDREWS AFB    MOCLDY    36  33  87 W3        30.02R
FT BELVOIR     CLOUDY    32  32 100 CALM      30.03S
QUANTICO       CLOUDY    35  32  88 NW5       30.05R
COLLEGE PARK*  CLOUDY    34  34 100 CALM      30.03R
LEESBURG*      CLOUDY    36  36 100 CALM      30.03R
MANASSAS*      CLOUDY    34  34 100 CALM      30.03S
GAITHERSBURG*  CLOUDY    32  30  93 CALM      30.04S

$$

MDZ006>007-011-014-271200-
BALTIMORE METRO

CITY           SKY/WX    TMP DP  RH WIND       PRES   REMARKS
BWI AIRPORT    MOCLDY    34  31  88 CALM      30.02R
MD SCIENCE CTR   N/A     35  31  85 MISG      30.01S
MARTIN STATE   MOCLDY    37  34  87 W6        30.04R
ANNAPOLIS      CLOUDY    35  30  82 SW5       30.02R
FORT MEADE*    CLOUDY    32  32 100 CALM      30.05R

$$

MDZ012-015-019>023-271200-
MARYLAND EASTERN SHORE

CITY           SKY/WX    TMP DP  RH WIND       PRES   REMARKS
OCEAN CITY     PTCLDY    35  33  92 W5        30.02R
SALISBURY      MOCLDY    37  33  85 W5        30.02R
BAY BRIDGE AP*   N/A     36  32  87 NW8       30.03R
CAMBRIDGE*     PTCLDY    36  34  93 CALM      30.02R
EASTON*        PTCLDY    37  37 100 W3        30.06R

$$

MDZ017>025-271200-
SOUTHERN MARYLAND

CITY           SKY/WX    TMP DP  RH WIND       PRES   REMARKS
PATUXENT RIVER MOCLDY    34  31  88 W6        30.03S
ST INIGOES     MOCLDY    37  32  82 W5        30.03S
LEONARDTOWN*   CLOUDY    32  32 100 CALM      30.04S

$$

MDZ003>005-271200-
NORTH CENTRAL MARYLAND

CITY           SKY/WX    TMP DP  RH WIND       PRES   REMARKS
FREDERICK*     NOT AVBL
HAGERSTOWN APT CLOUDY    33  30  88 NE5       30.00S FOG
WESTMINSTER*   CLOUDY    32  30  93 NW3       29.98S

$$

MDZ501>502-271200-
WESTERN MARYLAND

CITY           SKY/WX    TMP DP  RH WIND       PRES   REMARKS
OAKLAND*       CLOUDY    27 N/A N/A W5        29.90S HAZE
CUMBERLAND*    CLOUDY    32  32 100 CALM      30.04R VSB 1/4

$$

VAZ025>031-271200-
SHENANDOAH VALLEY

CITY           SKY/WX    TMP DP  RH WIND       PRES   REMARKS
WINCHESTER*    FOG       32  30  93 CALM      30.00S VSB 1/2
FRONT ROYAL*   CLOUDY    32  32 100 CALM      30.00S VSB 3/4
LURAY*         FOG       32  32 100 CALM      30.00R VSB 1/4
NEW MARKET*    CLOUDY    29  28  99 CALM      30.00R
STAUNTON*      FOG       29  27  94 CALM      30.00S VSB 3/4
WAYNESBORO*    CLOUDY    30  29  99 CALM      29.97S

$$

WVZ021-048>050-054>055-271200-
EASTERN WEST VIRGINIA PANHANDLE

CITY           SKY/WX    TMP DP  RH WIND       PRES   REMARKS
MARTINSBURG    CLOUDY    35  31  85 SW5       30.01R FOG
PETERSBURG*    FOG       31  30  97 CALM      30.01R VSB 1/4

$$

VAZ036>039-050-271200-
CENTRAL FOOTHILLS

CITY           SKY/WX    TMP DP  RH WIND       PRES   REMARKS
CHARLOTTESVILL CLOUDY    33  32  96 N5        30.00R FOG
CULPEPER*      CLOUDY    34  34 100 CALM      30.03S FOG
ORANGE*        CLOUDY    36  36 100 CALM      30.02S FOG
GORDONSVILLE*  FOG       33  33  99 CALM      30.00S VSB 1/2
WARRENTON*     CLOUDY    34  34 100 CALM      30.02S FOG

$$

VAZ055>057-271200-
NORTH AND CENTRAL PIEDMONT

CITY           SKY/WX    TMP DP  RH WIND       PRES   REMARKS
FREDERICKSBRG* CLOUDY    36  36 100 CALM      30.03S FOG
STAFFORD*      FOG       33  33 100 CALM      30.07S VSB 1

$$

NCZ024-NYZ072-PAZ021-071-VAZ022-071-271200-
OTHER REGIONAL OBSERVATIONS

CITY           SKY/WX    TMP DP  RH WIND       PRES   REMARKS
NEW YORK CITY  CLOUDY    36  30  79 VRB3      29.97R
PHILADELPHIA   CLOUDY    36  31  82 NW6       29.99R
PITTSBURGH     CLOUDY    32  31  96 W3        30.00R FOG
ROANOKE        CLOUDY    35  33  92 NE3       30.00S
RICHMOND       LGT RAIN  39  37  92 CALM      30.02F FOG
RALEIGH        LGT RAIN  41  38  89 E7        30.00F

$$

ANZ530>537-271200-
MARINE OBSERVATIONS

STATION/POSITION TIME  TEMP    WIND        PRES
                       AIR SEA DIR/SP/G
                 (UTC) (F)     (DEG/KT/KT) (MB)
THOMAS PT LIGHT  1100   36 47  280/  7/  8 1018.0R
BALT KEY BRIDGE  1100   36     270/  9/ 10 1016.4R
COVE POINT       1100   37     320/  6/  8 1016.6S
LEWISETTA        1100   37 47  300/  4/  5 1016.6S
SOLOMONS ISLAND  1100      49                N/A
PINEY POINT      1100          270/  8/  9   N/A

$$



USA.gov is the U.S. government's official web portal to all federal, state and local government web resources and services.